Location: Milton Keynes
(52.0316°N, 0.7531°W)
Time: 00:05:08
(UTC+01:00)

ISS - Visible Passes

Search period start: 22 October 2019 00:00
Search period end: 31 October 2019 23:00
Orbit: 411 x 421 km, 51.6° (Epoch: 21 October)

Date Brightness Start Highest point End Pass type
(mag) Time Alt. Az. Time Alt. Az. Time Alt. Az.
25 Oct -0.9 06:36:26 10° S 06:38:30 15° SE 06:40:34 10° ESE visible
26 Oct -0.6 05:49:35 10° SE 05:50:08 10° SE 05:50:41 10° SE visible
27 Oct -1.9 05:34:42 10° SSW 05:37:39 29° SSE 05:40:37 10° E visible
28 Oct -1.5 04:47:33 15° S 04:49:10 21° SE 04:51:46 10° E visible
29 Oct -0.9 04:01:15 14° SE 04:01:15 14° SE 04:02:40 10° ESE visible
29 Oct -3.0 05:34:09 14° SW 05:36:55 49° SSE 05:40:11 10° E visible
30 Oct -2.7 04:47:44 33° S 04:48:21 37° SSE 04:51:30 10° E visible
31 Oct -1.2 04:01:13 20° ESE 04:01:13 20° ESE 04:02:43 10° E visible
31 Oct -3.7 05:34:07 21° WSW 05:36:14 73° SSE 05:39:36 10° E visible
